Temperature
16 16 16 16 16 16 16 16 16 17 17 17 16 16 16 16 16 16 16 16 16 16 16 16 16 15 15 15 15 15 15 15 15 15 15 15 14 15 15 15 14 14 14
16 16 16 16 16 16 16 16 16 16 16 16 16 16 16 16 16 16 16 16 15 15 15 15 15 15 15 15 15 15 15 15 15 15 15 15 14 14 14 14 14 14 14
16 16 16 16 16 16 16 16 16 16 16 16 16 16 16 15 15 15 15 15 15 15 15 15 15 15 15 15 15 15 15 14 15 15 15 14 14 14 14 14 14 14 14
16 16 16 16 16 16 16 16 16 16 16 16 16 16 15 15 15 15 15 15 15 15 15 15 15 15 15 15 14 14 14 14 14 14 14 14 14 14 14 14 14 14 14
16 16 16 15 15 16 16 16 16 16 16 15 15 15 15 15 15 15 15 15 15 15 15 15 15 14 14 14 14 14 14 14 14 14 14 14 14 14 14 14 13 13 13
16 16 15 15 15 15 15 16 16 15 15 15 15 15 15 15 15 15 15 15 15 15 15 15 15 14 14 14 14 14 14 14 14 14 14 14 13 13 13 13 13 13 13
15 15 15 15 15 15 15 15 15 15 15 15 15 15 15 15 15 15 15 15 15 15 15 14 14 14 14 14 14 14 14 14 14 14 13 13 13 13 13 13 13 13 13
15 15 15 15 15 15 15 15 15 15 15 15 15 15 15 15 15 15 15 15 14 14 14 14 14 14 14 14 14 14 14 13 13 13 13 13 13 13 13 13 13 13 13
15 15 15 15 15 15 15 15 15 15 15 15 15 15 14 14 15 15 15 14 14 14 14 14 14 14 14 14 13 13 13 13 13 13 13 13 13 13 13 12 12 12 12
14 14 14 14 14 14 14 14 14 14 14 14 14 14 14 14 14 14 14 14 14 14 14 14 13 13 13 13 13 13 13 13 13 13 12 12 12 12 12 12 12 12 12
14 14 14 14 14 14 14 14 14 14 14 14 14 14 14 14 14 14 14 14 14 14 13 13 13 13 13 13 13 13 13 12 12 12 12 12 12 12 12 12 12 12 12
14 14 14 14 14 14 14 14 14 14 14 14 14 14 14 14 14 14 14 14 14 13 13 13 13 13 13 13 12 12 12 12 12 12 12 12 12 11 11 11 11 11 11
13 13 13 13 13 13 13 13 13 13 13 13 13 13 13 13 13 13 14 13 13 13 13 13 13 13 13 12 12 12 12 12 12 12 12 11 11 11 11 11 11 11 11
13 13 13 13 13 13 13 13 13 13 13 13 13 13 13 13 13 13 13 13 13 13 13 13 13 12 12 12 12 12 12 12 12 11 11 11 11 11 11 11 11 11 11
13 13 13 13 13 13 13 13 13 13 13 13 13 13 13 13 13 13 13 13 13 13 13 12 12 12 12 12 12 12 11 11 11 11 11 11 11 11 10 10 10 10 11
13 13 13 12 12 12 13 13 12 13 13 13 13 13 13 13 13 13 13 13 13 13 12 12 12 12 12 12 11 11 11 11 11 11 11 11 11 11 10 10 10 10 10
12 12 12 12 12 12 12 12 12 12 12 12 12 12 12 12 12 12 12 12 12 12 12 12 12 12 11 11 11 11 11 11 11 11 11 11 11 10 10 10 10 10 10
11 12 12 12 11 12 12 12 12 12 12 12 12 12 12 12 12 12 12 12 12 12 12 12 11 11 11 11 11 11 11 11 11 10 10 10 10 10 10 10 10 10 10
11 11 11 11 11 11 11 11 11 11 12 12 12 12 12 12 11 11 12 11 11 11 11 11 11 11 11 11 11 10 10 10 10 10 10 10 10 10 10 10 10 10 10
10 11 11 11 11 11 11 11 11 11 11 11 11 11 11 11 11 11 11 11 11 11 11 11 11 10 10 10 10 10 10 10 10 10 10 10 10 10 10 10 10 10 10
10 10 10 10 10 10 10 10 11 11 11 11 11 11 11 11 11 11 11 11 11 11 11 10 10 10 10 10 10 9 9 9 9 9 9 9 9 9 9 9 9 9 9
10 10 10 10 10 10 10 10 10 10 10 10 10 10 10 10 10 10 10 10 10 10 10 10 10 10 9 9 9 9 8 9 9 9 9 9 9 9 9 9 9 9 9
9 9 9 9 9 9 10 10 10 10 10 10 10 10 10 10 10 10 10 10 10 10 10 10 10 9 9 9 9 8 8 8 8 8 9 9 8 8 8 9 8 8 8
8 8 8 8 9 9 9 9 9 9 9 9 10 10 10 10 10 10 10 10 10 10 10 9 9 9 9 9 9 8 8 8 8 8 8 8 8 8 8 8 8 8 8
8 8 8 8 8 8 8 8 8 8 9 9 9 9 10 10 9 9 9 9 9 9 9 9 9 9 9 9 9 8 8 8 8 7 7 8 8 8 8 8 8 8 8
7 7 8 7 8 8 8 8 8 8 8 8 8 9 9 9 9 9 9 9 9 9 9 9 9 9 8 8 8 8 8 8 7 7 7 7 7 7 7 7 7 7 7
Wind_Speed
2 3 8 8 9 10 11 11 12 12 13 13 14 14 14 14 14 14 14 14 14 15 15 15 15 15 15 16 16 16 16 16 16 16 16 16 16 16 16 16 15 14 16
4 6 9 9 9 10 11 11 12 12 12 13 13 13 13 13 13 14 14 14 14 14 15 15 15 15 15 15 15 15 16 16 16 16 15 15 15 16 16 15 14 13 15
5 7 10 10 10 10 11 11 11 12 12 12 12 12 13 13 13 13 13 13 13 14 14 14 14 14 15 15 15 15 15 15 15 15 14 13 14 15 15 15 15 14 15
6 8 10 10 10 11 11 11 11 11 12 12 11 12 12 12 12 12 12 12 12 13 13 13 13 13 14 14 14 14 15 15 14 13 12 11 12 14 14 14 14 14 14
5 8 10 11 10 10 11 11 10 11 11 11 11 11 11 12 11 11 11 11 11 12 12 12 13 12 13 13 13 14 14 14 13 12 11 11 11 13 13 13 13 13 14
5 7 10 11 10 10 10 10 10 11 11 11 10 10 10 11 11 11 11 10 10 11 11 11 12 12 12 13 13 13 13 13 12 12 11 10 10 12 12 13 13 13 13
5 6 8 10 10 10 10 10 10 10 10 10 10 10 10 10 10 10 10 10 10 10 10 10 11 11 12 12 12 13 12 12 11 10 10 9 10 11 11 11 11 12 11
5 6 7 9 10 9 9 9 9 9 9 9 10 9 9 9 9 9 9 9 9 9 9 9 9 10 11 11 11 12 11 10 9 9 8 8 9 10 10 10 10 11 11
5 5 5 6 7 8 8 8 9 9 9 9 9 9 9 9 8 9 8 8 8 8 8 8 9 10 10 10 11 11 10 10 9 7 7 6 8 8 9 9 9 9 10
4 4 4 5 5 6 6 7 8 9 8 8 8 9 9 8 7 7 7 7 7 7 7 7 8 9 9 10 10 10 10 9 8 7 6 6 7 7 7 8 8 8 8
4 3 3 4 4 4 4 5 5 7 8 7 8 8 8 7 6 6 6 7 6 6 6 7 8 9 9 9 9 9 8 7 7 6 5 6 6 6 6 6 6 6 6
3 2 3 3 3 3 3 3 3 4 5 6 6 7 6 6 5 5 6 6 6 6 6 6 7 8 8 8 8 8 7 7 6 4 4 4 4 5 5 5 5 5 5
3 2 2 2 2 2 2 3 2 3 4 4 6 6 6 5 4 5 5 5 5 5 5 5 6 6 7 7 6 6 6 6 5 4 3 3 3 3 4 4 4 3 3
2 1 1 1 2 2 2 2 2 2 3 3 4 5 6 4 4 4 4 4 4 4 5 5 5 6 6 6 6 6 5 5 4 4 3 3 2 2 3 2 2 3 3
2 1 1 1 1 1 2 1 2 2 2 3 4 5 5 4 3 3 3 4 4 4 5 5 5 5 5 5 5 5 4 4 4 4 3 3 2 2 2 2 1 2 2
2 2 2 1 1 1 1 1 1 2 2 3 4 4 5 5 4 4 3 3 4 4 5 5 5 5 4 4 3 4 4 4 4 3 3 3 2 2 1 1 0 1 1
2 1 2 2 1 1 1 1 1 2 2 2 3 5 5 5 5 4 3 3 4 5 5 5 5 4 3 3 2 3 3 3 3 3 3 3 2 2 1 1 1 1 1
1 0 1 1 1 1 1 1 1 1 2 2 3 4 5 6 6 5 3 3 5 5 5 4 4 3 2 2 1 1 2 2 2 3 3 2 2 2 1 1 1 2 2
1 1 0 0 1 1 1 0 0 1 1 2 3 4 5 6 7 5 4 3 5 5 4 4 3 3 3 2 1 1 1 1 1 2 2 2 2 2 1 0 1 2 2
0 0 0 1 0 1 0 0 0 0 0 0 1 3 5 5 7 6 4 4 5 4 3 3 3 2 3 3 2 1 1 0 0 1 2 2 1 2 1 1 0 1 2
1 1 0 1 1 1 1 1 1 2 2 1 1 2 4 5 6 6 4 3 5 4 4 4 3 3 2 2 2 1 2 1 1 1 1 1 1 1 1 1 1 0 1
1 1 2 1 1 1 1 1 1 1 2 2 2 2 4 5 6 6 5 5 5 5 4 4 3 2 2 2 2 1 1 2 2 1 1 2 1 1 1 1 1 1 1
2 2 2 2 2 2 1 0 1 1 1 1 2 2 2 4 5 6 6 5 5 6 6 6 6 5 4 3 2 3 3 3 2 2 2 2 1 1 2 3 3 2 2
3 3 2 2 2 2 1 1 1 2 3 3 3 3 3 3 5 6 6 6 6 6 6 7 6 4 5 4 2 2 1 2 2 2 2 2 2 3 3 3 3 3 3
3 3 3 2 2 2 2 2 3 3 3 2 2 3 3 3 4 6 7 6 6 6 7 7 6 5 5 5 4 2 1 1 1 2 3 3 2 3 3 4 4 4 4
4 4 3 3 3 3 3 2 3 4 3 3 3 3 3 3 3 5 6 6 7 6 7 7 7 7 6 6 5 4 3 3 3 3 3 3 3 3 3 3 3 4 4
Wind_Direction
181 175 152 132 129 125 122 121 118 116 113 111 110 108 106 103 102 104 102 97 92 92 92 91 91 90 90 89 89 88 88 86 84 82 82 83 84 83 80 77 74 71 74
161 168 150 137 132 126 121 120 121 119 117 114 113 111 108 105 101 101 101 98 95 94 94 93 91 91 91 91 91 90 89 88 85 81 78 77 81 82 81 79 78 78 77
142 154 147 138 132 128 123 116 121 122 120 118 115 113 111 107 105 102 100 99 97 95 95 95 93 93 92 92 92 91 90 89 86 82 77 74 78 81 81 80 80 80 78
141 146 143 135 133 130 125 120 118 119 119 120 118 117 116 112 108 104 101 100 99 97 97 97 96 94 93 92 93 92 91 89 87 81 75 75 80 83 82 81 79 78 77
127 137 140 135 134 133 128 123 120 122 121 118 120 121 120 117 113 107 104 101 101 101 101 99 99 97 97 96 97 95 92 90 86 79 77 76 81 84 83 82 81 79 77
113 127 140 138 137 136 133 129 126 126 126 124 120 122 123 120 117 112 110 107 105 106 105 103 105 102 101 101 101 99 96 92 85 78 78 78 82 86 85 84 82 80 77
114 117 140 142 140 138 137 135 133 129 131 131 128 123 122 122 120 116 114 113 111 109 109 108 108 108 107 107 105 103 99 94 86 81 78 81 86 87 86 86 84 82 78
117 109 127 145 144 141 141 143 139 137 134 138 135 129 124 123 123 122 120 117 115 113 114 115 111 113 112 111 108 106 103 97 91 83 81 85 89 89 88 87 83 81 78
105 102 110 126 139 144 142 146 145 143 140 139 138 133 127 123 126 126 125 124 119 120 118 119 116 116 114 115 111 107 103 99 90 85 84 87 94 93 91 89 84 81 78
90 93 94 106 117 128 144 148 153 153 149 142 139 134 129 127 130 129 127 128 126 124 124 122 122 121 116 116 112 108 105 99 91 84 84 92 98 98 94 90 86 82 77
81 74 77 79 94 108 129 144 149 158 154 145 138 135 133 126 128 132 133 133 132 130 131 127 125 124 118 116 113 110 105 103 100 92 92 98 98 96 95 93 91 86 80
137 105 77 74 82 101 116 126 137 145 147 143 138 134 131 130 132 140 140 139 138 137 136 131 126 126 120 116 115 111 108 109 105 98 97 102 105 100 93 93 93 88 83
169 147 125 94 90 95 90 114 124 130 131 130 133 134 131 129 130 134 133 131 129 129 122 121 117 118 122 123 118 116 116 116 116 110 107 106 106 104 98 88 81 82 82
174 176 162 125 105 98 104 109 120 124 130 128 135 138 136 131 130 133 133 133 130 129 123 120 117 121 124 128 130 126 123 125 129 122 127 126 119 119 108 89 72 67 77
180 199 222 168 142 122 109 114 115 125 145 154 151 151 148 146 152 145 143 142 141 141 139 134 128 127 124 124 131 134 131 134 135 133 134 137 140 135 125 102 66 57 58
210 213 220 206 198 158 143 137 144 148 160 162 160 165 162 156 155 155 157 153 155 156 152 147 144 137 131 131 132 139 142 144 141 140 136 132 133 142 161 182 308 352 14
226 229 224 214 204 187 192 168 146 165 170 171 175 172 170 171 168 163 171 179 173 168 153 139 131 125 126 129 132 141 142 148 148 145 140 134 134 149 176 241 279 294 325
196 232 256 260 231 215 218 193 159 174 177 178 185 180 183 183 180 171 172 195 178 166 155 148 142 135 137 137 143 144 129 143 150 159 149 148 141 140 163 258 283 290 305
214 214 273 331 212 230 246 161 146 169 183 191 188 186 192 190 186 177 178 181 167 158 158 162 152 150 156 148 146 109 105 138 169 171 163 178 172 167 161 207 294 308 302
209 173 237 307 249 219 220 126 155 159 236 212 210 200 196 194 187 179 173 178 161 154 163 162 158 146 152 147 123 71 356 313 233 192 207 195 186 188 176 162 102 355 336
42 40 331 275 278 194 206 222 232 243 241 237 241 224 203 199 190 180 178 178 170 174 178 165 157 147 150 130 109 37 350 341 274 250 225 204 195 194 179 184 161 91 348
12 353 337 308 269 238 233 232 237 249 243 239 240 236 218 205 196 188 180 191 183 177 170 170 153 151 162 159 143 126 302 317 301 278 256 231 233 200 213 232 219 226 299
351 327 321 309 299 281 271 337 9 356 332 285 272 263 248 214 203 195 192 193 191 186 187 185 178 172 181 199 178 163 178 228 281 290 267 247 236 238 248 236 229 242 254
318 318 308 298 295 288 256 214 204 246 258 255 255 258 266 233 211 201 197 199 196 192 192 194 192 188 175 189 203 215 207 175 186 272 299 282 269 254 248 241 233 238 242
322 319 311 312 303 298 271 238 229 253 264 275 273 258 256 248 225 210 203 202 203 198 199 198 196 194 193 192 188 178 194 196 185 202 256 275 284 263 256 242 228 226 233
335 335 331 316 309 308 297 266 243 247 256 267 269 259 256 252 235 220 212 208 206 201 203 204 199 197 201 199 195 187 185 191 201 203 227 248 259 271 268 255 233 221 223
Height
1518 1520 1522 1523 1524 1526 1527 1528 1529 1530 1531 1531 1532 1532 1533 1534 1535 1536 1537 1537 1538 1538 1539 1539 1540 1540 1540 1541 1541 1541 1541 1542 1542 1542 1542 1543 1543 1543 1543 1543 1543 1544 1544
1517 1519 1521 1523 1524 1526 1527 1528 1529 1530 1531 1532 1533 1533 1534 1535 1536 1537 1538 1538 1539 1539 1540 1540 1541 1541 1541 1542 1542 1543 1543 1543 1543 1544 1544 1544 1545 1545 1545 1545 1545 1545 1545
1516 1519 1521 1523 1525 1526 1527 1529 1530 1531 1532 1533 1533 1534 1535 1536 1537 1538 1539 1539 1540 1540 1541 1541 1542 1542 1543 1543 1543 1544 1544 1544 1545 1545 1545 1545 1546 1546 1546 1546 1546 1546 1546
1517 1519 1521 1523 1525 1526 1528 1529 1530 1531 1532 1533 1534 1535 1536 1537 1538 1539 1539 1540 1540 1541 1541 1542 1542 1543 1544 1544 1544 1545 1545 1545 1546 1546 1547 1547 1547 1547 1547 1547 1547 1547 1547
1517 1519 1521 1523 1525 1526 1528 1529 1530 1531 1533 1534 1535 1535 1536 1537 1538 1539 1540 1540 1541 1541 1542 1542 1543 1544 1544 1545 1545 1546 1546 1546 1547 1547 1548 1548 1548 1548 1548 1548 1548 1548 1548
1517 1519 1521 1523 1525 1526 1528 1529 1530 1532 1533 1534 1535 1536 1537 1538 1538 1539 1540 1541 1541 1542 1542 1543 1544 1544 1545 1545 1546 1546 1547 1547 1548 1548 1548 1549 1549 1549 1549 1549 1549 1549 1549
1517 1519 1521 1523 1525 1526 1528 1529 1531 1532 1533 1534 1535 1536 1537 1538 1539 1539 1540 1541 1541 1542 1543 1543 1544 1545 1545 1546 1546 1547 1547 1548 1548 1549 1549 1550 1550 1550 1550 1550 1550 1550 1550
1517 1519 1521 1523 1525 1526 1528 1529 1530 1532 1533 1534 1535 1536 1537 1538 1539 1539 1540 1541 1542 1542 1543 1544 1544 1545 1546 1546 1547 1547 1548 1548 1549 1550 1550 1550 1551 1551 1551 1551 1551 1550 1550
1518 1519 1521 1523 1524 1526 1527 1529 1530 1531 1533 1534 1535 1536 1537 1538 1539 1539 1540 1541 1542 1542 1543 1544 1545 1545 1546 1547 1547 1548 1548 1549 1549 1550 1550 1551 1551 1551 1551 1551 1551 1551 1551
1518 1519 1521 1522 1524 1525 1527 1528 1530 1531 1532 1533 1534 1535 1536 1537 1538 1539 1540 1541 1541 1542 1543 1544 1545 1545 1546 1547 1547 1548 1548 1549 1550 1550 1551 1551 1552 1552 1552 1551 1551 1551 1551
1517 1519 1520 1522 1523 1524 1526 1527 1529 1530 1531 1532 1534 1535 1536 1537 1538 1539 1540 1540 1541 1542 1542 1543 1544 1545 1546 1546 1547 1548 1548 1549 1550 1550 1551 1551 1552 1552 1551 1551 1551 1551 1551
1515 1517 1519 1520 1521 1523 1525 1526 1527 1529 1530 1531 1532 1534 1535 1536 1537 1538 1539 1540 1541 1541 1542 1543 1544 1544 1545 1546 1547 1548 1548 1549 1549 1550 1550 1551 1551 1551 1551 1551 1551 1551 1550
1514 1516 1518 1519 1520 1521 1523 1524 1526 1527 1528 1530 1531 1532 1533 1534 1536 1537 1537 1538 1540 1541 1541 1542 1543 1544 1544 1545 1546 1547 1548 1548 1549 1549 1550 1550 1550 1551 1551 1550 1550 1550 1550
1513 1515 1516 1518 1519 1520 1521 1522 1524 1525 1526 1527 1529 1530 1531 1533 1534 1535 1536 1537 1538 1539 1540 1541 1542 1543 1543 1544 1545 1546 1546 1547 1548 1548 1549 1549 1549 1550 1550 1550 1549 1549 1549
1512 1513 1515 1516 1517 1518 1519 1521 1522 1523 1524 1526 1527 1528 1529 1531 1532 1533 1534 1535 1536 1537 1538 1539 1540 1541 1542 1543 1544 1544 1545 1546 1546 1547 1547 1548 1548 1548 1548 1548 1548 1548 1547
1510 1511 1513 1514 1515 1516 1518 1519 1520 1521 1522 1524 1525 1526 1527 1528 1530 1531 1532 1533 1534 1535 1537 1538 1539 1540 1540 1541 1542 1543 1544 1544 1545 1545 1546 1546 1547 1547 1547 1547 1546 1546 1546
1508 1510 1511 1512 1513 1514 1515 1516 1517 1519 1520 1521 1522 1523 1525 1526 1527 1529 1530 1531 1532 1533 1534 1535 1536 1538 1539 1539 1540 1541 1541 1542 1543 1543 1544 1544 1545 1545 1545 1545 1545 1544 1544
1507 1508 1509 1510 1510 1512 1513 1514 1515 1516 1517 1518 1519 1520 1522 1523 1524 1526 1527 1528 1529 1531 1532 1533 1534 1535 1536 1537 1538 1539 1539 1540 1541 1541 1542 1542 1542 1542 1543 1542 1542 1542 1542
1505 1505 1506 1507 1508 1509 1510 1511 1512 1513 1514 1515 1516 1517 1519 1520 1521 1522 1524 1525 1526 1528 1529 1530 1531 1532 1533 1535 1535 1536 1537 1537 1538 1538 1539 1540 1540 1540 1540 1540 1540 1540 1539
1503 1504 1504 1504 1505 1506 1508 1509 1509 1510 1511 1512 1513 1514 1515 1516 1518 1519 1520 1522 1523 1524 1525 1527 1528 1530 1531 1532 1533 1534 1534 1534 1535 1535 1536 1537 1537 1537 1537 1537 1537 1537 1536
1500 1501 1501 1501 1502 1503 1504 1505 1505 1506 1507 1508 1509 1510 1511 1513 1514 1515 1517 1518 1519 1520 1522 1523 1525 1526 1528 1529 1530 1530 1531 1531 1532 1532 1533 1533 1533 1533 1534 1534 1534 1533 1533
1497 1498 1498 1499 1499 1500 1501 1502 1503 1504 1504 1505 1506 1507 1507 1508 1510 1511 1512 1514 1515 1517 1518 1519 1521 1523 1524 1526 1526 1527 1527 1528 1528 1528 1529 1529 1530 1530 1530 1530 1530 1530 1530
1495 1495 1496 1496 1497 1498 1499 1499 1500 1501 1501 1501 1502 1502 1503 1505 1506 1507 1508 1510 1511 1513 1514 1516 1517 1519 1520 1522 1523 1524 1524 1523 1524 1524 1525 1525 1526 1526 1526 1526 1526 1526 1526
1492 1493 1493 1494 1494 1495 1495 1496 1496 1496 1496 1496 1497 1498 1499 1500 1501 1502 1504 1505 1507 1508 1510 1511 1513 1515 1516 1517 1519 1520 1521 1520 1521 1520 1521 1521 1522 1522 1523 1522 1522 1522 1522
1490 1490 1490 1490 1491 1491 1492 1492 1493 1493 1493 1493 1494 1494 1495 1496 1497 1498 1499 1501 1502 1503 1505 1507 1508 1510 1511 1512 1513 1515 1516 1516 1517 1517 1516 1517 1518 1518 1519 1519 1518 1518 1518
1487 1487 1487 1487 1487 1487 1488 1488 1489 1489 1489 1489 1489 1489 1490 1491 1492 1493 1494 1496 1498 1499 1500 1502 1503 1505 1506 1508 1509 1510 1511 1512 1512 1513 1512 1512 1513 1514 1514 1514 1514 1514 1514